[[{"header":{"parameterUnit":"m.s-1","parameterCategory":1,"la1":30.2991,"la2":30.254,"lo1":-89.0895,"lo2":-89.0444,"dy":0.0017,"dx":0.0017,"nx":28,"ny":28,"refTime":"2023-09-21T03:00:00:Z","depth":0,"parameterNumber":2,"parameterNumberName":"U-component_of_WINDS"},"data":[0,0,0,0,0,0,0,0,0,0,0,0,0,0,0,0,0,0,0,0,0,0,0,0,0,0,0,0,0,0,0,0,0,0,0,0,0,0,0,0,0,0,0,0,0,0,0,0,0,0,0,0,0,0,0,0,0,0,-4.2744,-4.2745,0,-4.283,-4.2831,-4.2832,-4.2763,-4.276,-4.2757,-4.2755,-4.2842,-4.2847,-4.2852,0,0,0,0,0,0,0,0,0,0,0,0,0,-4.2519,-4.2523,-4.2744,-4.2745,-4.2746,-4.283,-4.2831,-4.2833,-4.2764,-4.276,-4.2757,-4.2753,-4.284,-4.2846,-4.2852,0,0,0,0,0,0,0,0,0,0,0,0,0,-4.2612,-4.2525,-4.2744,-4.2722,-4.2721,-4.283,-4.2831,-4.2833,-4.2764,-4.276,-4.2756,-4.2751,-4.2838,-4.2846,-4.2853,-4.2988,0,0,-4.2876,-4.288,0,0,0,0,0,0,0,0,-4.2607,-4.262,-4.2724,-4.2723,-4.2722,-4.2781,-4.2784,-4.2885,-4.2766,-4.2748,-4.2754,-4.2749,-4.2825,-4.2834,-4.286,-4.2992,-4.2996,-4.2877,-4.2882,-4.2885,-4.2887,0,0,0,0,0,0,0,-4.2601,-4.2616,-4.2778,-4.2725,-4.2725,-4.2708,-4.2716,-4.2803,-4.281,-4.2749,-4.2744,-4.2755,-4.2824,-4.2852,-4.2861,-4.2997,-4.2877,-4.2884,-4.2888,-4.2891,-4.3246,-4.3251,0,0,0,0,0,0,-4.2596,-4.2611,-4.2775,-4.2781,-4.2653,-4.2715,-4.2725,-4.2767,-4.2809,-4.2811,-4.2759,-4.2752,-4.2842,-4.2852,-4.2864,-4.3025,-4.2885,-4.2892,-4.2896,-4.3242,-4.3248,-4.3253,0,0,0,0,0,0,-4.2592,-4.2612,-4.2772,-4.2695,-4.2714,-4.2724,-4.2772,-4.2771,-4.2799,-4.2817,-4.2818,-4.2787,-4.2839,-4.2853,-4.2958,-4.3027,-4.2895,-4.2902,-4.3236,-4.3243,-4.325,-4.3348,0,0,0,0,0,0,-4.2586,-4.261,-4.2662,-4.2697,-4.2718,-4.2865,-4.2776,-4.2776,-4.2813,-4.2804,-4.2843,-4.2845,-4.2836,-4.2947,-4.2966,-4.3035,-4.2908,-4.323,-4.3239,-4.3248,-4.3339,-4.3358,-4.3374,0,0,0,0,0,-4.2578,-4.2685,-4.2665,-4.2685,-4.2783,-4.2869,-4.2881,-4.2869,-4.2819,-4.287,-4.2882,-4.2844,-4.3017,-4.2959,-4.2979,-4.3051,-4.3225,-4.3237,-4.3247,-4.3331,-4.3354,-4.3374,0,0,0,0,0,0,-4.2657,-4.2689,-4.2667,-4.2789,-4.2827,-4.2857,-4.2921,-4.2894,-4.2947,-4.2937,-4.2919,-4.2929,-4.3039,-4.3056,-4.299,-4.3185,-4.3113,-4.3129,-4.317,-4.3192,-4.3209,-4.3202,-4.2914,0,0,0,0,0,-4.2689,-4.2757,-4.2781,-4.2886,-4.2907,-4.2911,-4.2948,-4.2936,-4.2974,-4.299,-4.3009,-4.3048,-4.3111,-4.3153,-4.3212,-4.3342,-4.3349,-4.3402,-4.342,-4.3434,-4.3447,-4.3518,-4.3542,-4.3289,-4.3289,-4.3289,0,0,-4.2755,-4.2781,-4.2824,-4.2903,-4.2931,-4.3001,-4.2925,-4.3002,-4.3054,-4.3001,-4.3102,-4.3118,-4.316,-4.3278,-4.3331,-4.3295,-4.3519,-4.3448,-4.346,-4.3465,-4.3532,-4.3556,-4.3577,-4.3296,-4.3295,-4.3294,0,0,-4.2911,-4.2938,-4.3028,-4.3059,-4.3102,-4.3105,-4.3127,-4.3163,-4.3171,-4.3272,-4.3234,-4.3296,-4.3405,-4.3437,-4.3467,-4.3639,-4.3606,-4.3659,-4.375,-4.382,-4.384,-4.3857,-4.3918,-4.394,-4.3672,-4.3672,-4.3672,0,-4.2987,-4.3091,-4.3078,-4.3159,-4.3195,-4.3152,-4.3244,-4.3274,-4.3335,-4.336,-4.332,-4.3457,-4.3482,-4.3608,-4.365,-4.3676,-4.3701,-4.3653,-4.3838,-4.3855,-4.3872,-4.3929,-4.3952,-4.3678,-4.3678,-4.3677,-4.3676,0,-4.3183,-4.3256,-4.3324,-4.3385,-4.3429,-4.3515,-4.3515,-4.3561,-4.3546,-4.3553,-4.3657,-4.3687,-4.3751,-4.3781,-4.3766,-4.3905,-4.3881,-4.384,-4.3767,-4.3902,-4.3956,-4.3978,-4.3687,-4.3685,-4.3683,-4.3681,0,0,-4.3388,-4.3443,-4.3468,-4.3495,-4.3542,-4.3598,-4.3683,-4.3747,-4.3787,-4.3831,-4.3902,-4.3997,-4.3959,-4.3994,-4.3983,-4.4044,-4.4178,-4.3995,-4.3996,-4.4028,-4.4333,-4.4363,-4.4388,-4.4158,-4.4162,-4.4165,-4.4329,0,-4.3546,-4.3693,-4.3685,-4.3823,-4.3891,-4.3853,-4.3927,-4.3963,-4.3973,-4.4033,-4.4043,-4.4111,-4.4056,-4.4077,-4.4136,-4.4149,-4.4239,-4.4138,-4.4223,-4.4226,-4.4212,-4.4417,-4.4448,-4.4601,-4.435,-4.4354,-4.4356,0,-4.3748,-4.38,-4.3946,-4.3983,-4.4012,-4.4078,-4.4137,-4.4194,-4.4236,-4.4239,-4.4279,-4.4259,-4.4345,-4.4272,-4.4391,-4.4322,-4.4357,-4.4369,-4.4375,-4.4381,-4.4298,-4.4427,-4.465,-4.4672,-4.439,-4.4387,-4.4385,0,-4.3882,-4.3989,-4.409,-4.4115,-4.4162,-4.421,-4.4232,-4.4269,-4.4309,-4.436,-4.4386,-4.4447,-4.448,-4.4529,-4.4526,-4.4473,-4.4647,-4.4573,-4.4651,-4.4651,-4.4687,-4.4685,-4.4918,-4.4713,-4.4712,-4.4712,-4.4711,0,-4.4058,-4.4148,-4.4151,-4.4213,-4.4314,-4.4304,-4.4404,-4.4421,-4.4455,-4.452,-4.4491,-4.4552,-4.4546,-4.4608,-4.4607,-4.4705,-4.4721,-4.4726,-4.4724,-4.4727,-4.4727,-4.4748,-4.4737,-4.4718,-4.4717,-4.4715,-4.4714,0,-4.4224,-4.423,-4.4337,-4.4374,-4.4385,-4.4457,-4.4489,-4.4548,-4.4556,-4.4639,-4.4658,-4.4671,-4.4743,-4.4746,-4.4828,-4.4827,-4.4947,-4.4934,-4.4933,-4.493,-4.5008,-4.5001,-4.5262,-4.5296,-4.507,-4.5072,-4.5074,0,-4.4335,-4.4403,-4.4448,-4.4489,-4.4514,-4.4582,-4.4622,-4.4617,-4.4661,-4.4715,-4.4767,-4.4837,-4.4892,-4.5009,-4.5026,-4.5089,-4.5077,-4.5164,-4.5086,-4.5088,-4.5077,-4.5073,-4.508,-4.5179,-4.5181,-4.5183,-4.5185,0,-4.4531,-4.4531,-4.459,-4.4653,-4.4702,-4.475,-4.4795,-4.4831,-4.4831,-4.4882,-4.4955,-4.4998,-4.5084,-4.5153,-4.5215,-4.5237,-4.5212,-4.521,-4.5231,-4.5235,-4.5231,-4.5233,-4.4974,-4.5203,-4.5201,-4.52,-4.5199,-4.5198,-4.4672,-4.4731,-4.4772,-4.484,-4.4874,-4.4917,-4.4975,-4.4991,-4.5053,-4.5122,-4.5115,-4.5197,-4.5239,-4.532,-4.5348,-4.5412,-4.5382,-4.5413,-4.5421,-4.5428,-4.5436,-4.5223,-4.5424,-4.5423,-4.5422,-4.5422,-4.5422,0,-4.4865,-4.489,-4.4953,-4.5018,-4.5072,-4.5044,-4.5093,-4.514,-4.5212,-4.5254,-4.5309,-4.5395,-4.5463,-4.5486,-4.5552,-4.5599,-4.5589,-4.5617,-4.5612,-4.5618,-4.5459,-4.5434,-4.5624,-4.5624,-4.5624,-4.5624,-4.5624,-4.5624,-4.4972,-4.5072,-4.5077,-4.5194,-4.5218,-4.5298,-4.5329,-4.5369,-4.5402,-4.5499,-4.5555,-4.557,-4.5605,-4.5674,-4.5735,-4.5741,-4.5766,-4.5799,-4.5799,-4.565,-4.5629,-4.561,-4.5586,-4.5804,-4.5805,-4.5952,-4.5953,-4.5954]},{"header":{"parameterUnit":"m.s-1","parameterCategory":1,"la1":30.2991,"la2":30.254,"lo1":-89.0895,"lo2":-89.0444,"dy":0.0017,"dx":0.0017,"nx":28,"ny":28,"refTime":"2023-09-21T03:00:00:Z","depth":0,"parameterNumber":3,"parameterNumberName":"V-component_of_WINDS"},"data":[0,0,0,0,0,0,0,0,0,0,0,0,0,0,0,0,0,0,0,0,0,0,0,0,0,0,0,0,0,0,0,0,0,0,0,0,0,0,0,0,0,0,0,0,0,0,0,0,0,0,0,0,0,0,0,0,0,0,1.8679,1.8679,0,1.8657,1.8657,1.8657,1.8651,1.8652,1.8652,1.8652,1.8626,1.8625,1.8624,0,0,0,0,0,0,0,0,0,0,0,0,0,1.8713,1.8713,1.8679,1.8679,1.8678,1.8657,1.8657,1.8657,1.8651,1.8652,1.8652,1.8652,1.8626,1.8625,1.8624,0,0,0,0,0,0,0,0,0,0,0,0,0,1.8695,1.8712,1.8679,1.8673,1.8673,1.8657,1.8657,1.8657,1.8651,1.8652,1.8652,1.8652,1.8626,1.8625,1.8624,1.8611,0,0,1.862,1.8619,0,0,0,0,0,0,0,0,1.8697,1.8694,1.8674,1.8674,1.8673,1.8657,1.8659,1.8641,1.8651,1.8659,1.8652,1.8652,1.8636,1.8634,1.8629,1.861,1.8609,1.862,1.8619,1.8618,1.8618,0,0,0,0,0,0,0,1.8698,1.8695,1.867,1.8674,1.8673,1.8671,1.8669,1.8656,1.8646,1.8659,1.8658,1.8656,1.8635,1.863,1.8628,1.8609,1.862,1.8619,1.8618,1.8617,1.858,1.858,0,0,0,0,0,0,1.87,1.8696,1.8671,1.867,1.8686,1.867,1.8668,1.8662,1.8647,1.8644,1.8656,1.8656,1.8632,1.863,1.8627,1.8613,1.8618,1.8617,1.8617,1.858,1.858,1.858,0,0,0,0,0,0,1.8701,1.8698,1.8672,1.8683,1.8679,1.8669,1.8663,1.8661,1.8656,1.8644,1.8642,1.8653,1.8632,1.8629,1.8616,1.8612,1.8617,1.8616,1.858,1.858,1.858,1.8582,0,0,0,0,0,0,1.8702,1.8699,1.8694,1.8683,1.8679,1.8661,1.8663,1.8661,1.8655,1.8655,1.8641,1.8639,1.8632,1.8618,1.8615,1.861,1.8615,1.8581,1.858,1.858,1.8583,1.8582,1.8582,0,0,0,0,0,1.8703,1.8694,1.8694,1.8691,1.8673,1.8661,1.8659,1.8653,1.8654,1.865,1.8642,1.8639,1.8613,1.8617,1.8613,1.8608,1.8581,1.858,1.858,1.8583,1.8582,1.8582,0,0,0,0,0,0,1.8703,1.8693,1.8692,1.8679,1.8671,1.866,1.8654,1.8652,1.8642,1.8642,1.8634,1.8631,1.8619,1.8612,1.8616,1.8596,1.8597,1.8596,1.86,1.86,1.8599,1.8601,1.8614,0,0,0,0,0,1.8702,1.8694,1.8685,1.8675,1.8671,1.8663,1.8658,1.8654,1.8645,1.8641,1.8633,1.8623,1.8613,1.8606,1.8596,1.8582,1.8579,1.8577,1.8576,1.8576,1.8575,1.8568,1.8567,1.8578,1.8578,1.8578,0,0,1.8698,1.8692,1.8687,1.8674,1.8668,1.8659,1.866,1.8651,1.8644,1.8639,1.8627,1.8621,1.8609,1.8596,1.859,1.859,1.8571,1.8575,1.8575,1.8574,1.8567,1.8566,1.8565,1.8577,1.8578,1.8578,0,0,1.8688,1.8683,1.8674,1.8668,1.8659,1.8655,1.8653,1.8642,1.8639,1.8627,1.8623,1.8615,1.8597,1.859,1.8584,1.8574,1.857,1.857,1.8568,1.8561,1.856,1.8559,1.8556,1.8555,1.8569,1.8569,1.8569,0,1.8684,1.8672,1.8669,1.866,1.8655,1.8653,1.8644,1.8638,1.8626,1.8622,1.8623,1.8602,1.8594,1.858,1.8578,1.8573,1.857,1.8571,1.8561,1.856,1.8559,1.8556,1.8555,1.8569,1.8569,1.8569,1.8569,0,1.8669,1.8661,1.8655,1.8645,1.8639,1.863,1.8625,1.8619,1.8617,1.8613,1.8601,1.8592,1.858,1.8577,1.8574,1.8563,1.8563,1.8563,1.8564,1.8558,1.8555,1.8554,1.857,1.8569,1.8569,1.8569,0,0,1.8655,1.8646,1.8643,1.864,1.8631,1.8624,1.8616,1.8607,1.8602,1.8594,1.8587,1.8573,1.8574,1.8567,1.8563,1.8557,1.8551,1.8558,1.8557,1.8557,1.8539,1.8539,1.8537,1.8549,1.8549,1.8549,1.854,0,1.8643,1.8629,1.8627,1.8614,1.8607,1.8606,1.8599,1.8592,1.8588,1.8581,1.8576,1.8567,1.8568,1.8564,1.8559,1.8553,1.8547,1.8553,1.8541,1.8541,1.8544,1.8535,1.8535,1.8526,1.8538,1.8538,1.8538,0,1.8626,1.8621,1.8608,1.8602,1.8599,1.8592,1.8585,1.8578,1.8571,1.8569,1.8563,1.8561,1.8551,1.8554,1.8542,1.8546,1.8542,1.8538,1.8538,1.8535,1.8538,1.8532,1.8523,1.8522,1.8536,1.8536,1.8536,0,1.8617,1.8606,1.8598,1.8594,1.8587,1.8583,1.858,1.8574,1.8569,1.8562,1.8559,1.8551,1.8546,1.8539,1.8535,1.8537,1.8523,1.8525,1.852,1.852,1.8515,1.8516,1.8505,1.8514,1.8514,1.8514,1.8514,0,1.8603,1.8595,1.8594,1.8588,1.858,1.8578,1.8569,1.8566,1.8561,1.8554,1.8553,1.8547,1.8542,1.8535,1.8531,1.8522,1.8519,1.8517,1.8516,1.8516,1.8517,1.8512,1.8512,1.8514,1.8514,1.8514,1.8514,0,1.8591,1.8589,1.858,1.8576,1.8574,1.8568,1.8564,1.8559,1.8556,1.8548,1.8546,1.8541,1.8533,1.8529,1.8518,1.8516,1.8505,1.8505,1.8508,1.8507,1.8503,1.8503,1.8488,1.8486,1.8497,1.8497,1.8497,0,1.8581,1.8576,1.8572,1.8569,1.8566,1.856,1.8556,1.8555,1.855,1.8544,1.8539,1.8532,1.8526,1.8513,1.8508,1.85,1.8499,1.8495,1.8498,1.8499,1.8499,1.8499,1.8499,1.8493,1.8493,1.8493,1.8493,0,1.8565,1.8566,1.8561,1.8556,1.8552,1.8548,1.8544,1.8541,1.8539,1.8534,1.8527,1.8523,1.8514,1.8506,1.8499,1.8494,1.8493,1.8493,1.8491,1.8491,1.8493,1.8492,1.8506,1.8492,1.8493,1.8493,1.8493,1.8493,1.8553,1.8549,1.8546,1.8541,1.8539,1.8536,1.8531,1.8529,1.8524,1.8517,1.8517,1.851,1.8505,1.8495,1.8491,1.8485,1.8486,1.8483,1.8482,1.8482,1.8482,1.8496,1.8484,1.8484,1.8484,1.8484,1.8484,0,1.8537,1.8536,1.8532,1.8527,1.8524,1.8526,1.8522,1.8518,1.8513,1.8509,1.8504,1.8497,1.849,1.8486,1.848,1.8476,1.8475,1.8474,1.8474,1.8473,1.8481,1.8483,1.8475,1.8475,1.8475,1.8475,1.8475,1.8475,1.8527,1.8521,1.8521,1.8513,1.8512,1.8506,1.8504,1.8501,1.8499,1.8491,1.8487,1.8485,1.8482,1.8475,1.847,1.8469,1.8466,1.8465,1.8464,1.8471,1.8472,1.8473,1.8475,1.8465,1.8465,1.8456,1.8456,1.8456]}]]